Temp
86 87 83 76 70 78 72 73 82 78 79 86 87 83 80 80 78 71 93 94 94 94 92 89 83 83 83 83 83 83 83 83 83 83 83 83 83 83 84 84 84 84 84 84 84 83 83 83 84
91 84 84 83 70 69 71 80 76 81 85 88 86 84 82 74 84 85 87 93 94 95 94 92 81 83 83 83 83 83 84 83 83 83 83 83 83 83 84 84 84 84 84 84 84 84 84 84 83
85 85 81 74 76 70 71 81 81 84 87 85 81 87 82 75 85 87 93 94 96 94 91 88 82 83 83 83 83 83 83 83 83 83 84 83 84 84 84 84 84 84 84 84 84 84 83 84 83
79 78 82 69 71 75 79 83 85 84 85 86 84 76 81 90 87 91 93 95 95 95 96 84 83 83 83 83 83 83 84 83 83 84 84 83 84 84 85 84 84 84 84 83 83 83 84 84 84
76 80 73 71 73 79 85 87 88 83 83 84 84 76 78 85 92 93 93 96 96 97 95 91 83 83 83 83 83 83 84 84 83 84 84 84 84 84 85 84 84 84 84 84 84 84 84 84 83
75 81 69 68 72 79 84 88 88 84 83 83 81 79 76 87 90 92 95 96 98 96 94 92 83 83 83 83 83 83 83 84 83 84 84 83 84 84 85 85 85 85 85 85 85 85 83 83 83
73 75 70 75 72 74 79 89 84 83 82 83 88 78 75 86 92 94 95 96 97 97 92 88 92 86 83 83 83 83 83 84 83 83 83 84 84 84 85 85 85 85 85 85 84 84 84 84 83
78 76 70 74 72 71 81 82 85 85 81 89 90 76 72 82 91 95 95 95 96 95 93 89 90 91 91 90 83 83 83 84 83 84 84 84 84 85 85 83 85 85 85 85 85 84 84 84 83
83 72 62 69 73 73 83 74 82 88 84 86 86 88 86 86 92 92 91 91 91 93 93 95 94 92 92 91 87 84 83 83 83 84 83 85 88 94 92 85 85 85 85 85 85 85 84 84 84
84 76 63 73 76 77 80 79 82 82 82 81 85 88 87 89 89 88 88 88 90 89 90 93 87 92 93 94 89 89 91 93 89 91 90 91 92 91 92 88 85 85 85 85 85 84 85 87 99
81 72 70 71 79 85 75 76 85 82 79 83 81 83 85 87 88 88 89 90 89 90 93 94 90 89 87 86 90 93 94 93 89 88 91 92 93 93 95 94 94 95 87 97 95 97 99 96 97
78 79 79 81 81 82 80 82 80 80 81 90 88 87 87 87 89 90 90 89 88 89 90 91 90 86 88 91 93 93 93 93 93 91 90 90 92 91 92 94 93 93 95 93 94 96 94 96 95
80 83 82 85 77 76 81 71 72 72 85 90 89 87 87 88 89 91 92 91 89 88 89 89 89 87 87 86 90 92 90 94 93 92 92 93 93 90 93 92 94 94 97 95 94 95 95 96 97
86 84 82 83 79 79 70 72 73 70 86 86 86 87 88 89 90 89 89 89 88 89 89 90 89 88 87 88 87 88 91 91 93 94 91 90 94 92 92 93 95 94 96 95 95 92 95 96 98
87 78 79 78 77 72 74 63 64 70 85 83 85 87 88 89 90 88 89 88 90 91 90 89 89 90 87 87 88 91 91 94 93 93 90 90 93 90 91 93 95 95 94 94 95 96 97 98 100
82 82 72 74 73 68 67 61 69 79 83 82 85 86 86 88 89 90 91 90 91 92 88 89 92 90 88 86 89 92 92 93 93 94 94 91 91 90 91 95 95 94 96 97 96 96 97 97 99
80 74 72 70 79 70 72 63 69 79 80 80 84 86 87 87 89 90 92 91 91 90 88 88 89 89 88 86 89 89 88 92 93 95 95 91 91 91 95 96 93 94 97 96 97 96 96 96 98
74 77 78 73 77 74 70 69 73 72 70 74 80 83 86 87 89 90 92 92 92 91 89 88 89 87 86 88 87 90 91 93 94 94 95 91 92 91 94 93 92 96 98 96 95 91 95 96 96
82 79 77 78 80 75 69 72 73 69 68 67 71 77 87 87 91 92 92 92 92 91 88 87 87 85 86 87 88 89 89 90 92 93 91 90 91 91 91 95 93 96 94 91 92 96 92 96 97
80 78 77 75 78 77 73 72 75 74 70 70 71 80 85 87 87 88 90 92 91 89 88 87 86 85 85 88 89 90 91 92 93 93 91 92 91 91 91 91 94 90 95 90 91 90 95 96 94
79 78 76 75 75 78 75 66 70 73 76 76 71 75 78 81 88 89 88 90 91 90 88 87 86 86 85 87 88 87 88 84 85 89 90 91 91 92 91 91 91 92 92 95 91 92 89 93 94
76 81 78 76 74 64 78 59 67 72 72 75 77 68 73 83 88 92 91 90 91 91 91 89 87 85 85 85 87 85 87 85 88 86 91 92 91 91 91 90 91 90 95 91 94 94 92 90 93
77 81 80 79 76 75 73 72 75 76 68 71 76 72 73 77 88 89 91 92 93 92 92 90 87 85 86 85 85 87 86 89 89 90 86 88 88 90 92 90 90 90 94 91 91 91 89 95 94
82 79 79 78 77 67 76 74 71 72 72 74 75 80 79 76 87 89 92 93 93 94 92 91 87 85 85 84 84 83 84 87 88 87 87 89 91 91 89 91 90 90 92 90 92 91 89 89 90
79 77 66 63 65 66 78 72 77 80 79 79 79 79 82 78 83 85 87 91 90 91 91 91 87 84 85 86 85 85 84 86 85 85 87 87 89 92 88 89 89 91 89 90 91 90 90 91 91
76 78 69 57 63 69 75 67 78 83 83 84 85 83 85 80 80 80 88 90 89 90 90 90 87 85 86 86 85 85 85 85 84 87 92 91 92 91 90 89 90 90 90 91 90 92 94 91 94
76 71 83 74 77 71 73 76 76 78 79 80 82 83 81 80 76 86 90 91 91 90 89 89 88 86 87 88 86 86 86 85 83 86 88 90 90 91 90 90 90 90 90 89 89 92 89 91 90
80 83 71 72 60 59 69 70 77 73 77 79 81 82 83 79 78 84 87 89 91 91 90 90 89 87 87 88 88 88 88 87 87 85 85 87 89 90 89 89 90 89 89 90 88 91 90 88 92
76 74 76 79 75 66 64 70 80 78 79 79 82 83 84 83 83 83 86 86 89 88 87 89 89 88 88 88 88 87 88 88 87 88 87 87 88 88 88 88 89 89 89 89 87 88 89 87 88
81 79 79 69 66 72 72 67 79 79 80 81 82 84 86 85 83 77 81 84 85 85 85 84 87 88 89 89 87 87 87 88 88 86 86 88 85 86 87 88 88 88 89 89 88 88 91 88 88
MSLP
1012.00 1011.96 1012.36 1011.94 1010.83 1007.94 1007.01 1007.50 1007.83 1008.24 1008.87 1009.37 1009.94 1009.90 1010.56 1011.32 1011.16 1012.48 1014.16 1014.94 1015.36 1015.68 1016.68 1017.26 1017.82 1017.86 1018.01 1018.12 1018.17 1018.23 1018.22 1018.15 1018.34 1018.16 1018.17 1018.53 1018.62 1018.68 1018.75 1018.82 1018.78 1018.80 1018.88 1019.00 1019.22 1019.14 1019.15 1019.34 1019.34
1011.20 1011.84 1011.64 1009.95 1008.75 1006.92 1006.92 1007.42 1007.83 1008.22 1008.93 1009.69 1010.13 1010.47 1010.54 1012.15 1012.75 1013.57 1014.54 1015.24 1015.42 1015.53 1016.29 1016.99 1018.16 1018.18 1018.28 1018.38 1018.44 1018.54 1018.56 1018.62 1018.61 1018.62 1018.61 1018.75 1018.96 1019.08 1019.06 1019.05 1019.11 1019.20 1019.24 1019.35 1019.50 1019.52 1019.70 1019.66 1019.77
1011.76 1011.64 1010.24 1009.02 1007.49 1006.51 1006.60 1007.11 1007.78 1008.57 1009.40 1009.73 1010.43 1010.76 1011.68 1013.05 1013.58 1013.74 1014.79 1015.38 1015.36 1015.93 1016.63 1017.77 1018.35 1018.47 1018.60 1018.64 1018.68 1018.80 1018.89 1018.90 1018.85 1018.94 1018.98 1018.97 1019.07 1019.12 1019.31 1019.26 1019.36 1019.51 1019.66 1019.77 1019.90 1020.01 1020.14 1020.08 1020.15
1011.92 1011.40 1010.20 1008.69 1007.18 1007.19 1006.54 1007.11 1007.91 1008.64 1009.49 1010.09 1010.83 1011.78 1013.34 1013.26 1013.85 1014.30 1015.19 1015.36 1015.73 1016.22 1016.53 1018.27 1018.44 1018.62 1018.79 1018.91 1018.93 1019.05 1019.20 1019.25 1019.39 1019.27 1019.34 1019.32 1019.30 1019.44 1019.44 1019.58 1019.88 1019.98 1020.12 1020.14 1020.28 1020.18 1020.38 1020.33 1020.38
1011.96 1010.92 1009.11 1008.02 1007.48 1007.25 1007.00 1007.38 1008.20 1008.59 1009.45 1010.30 1010.79 1012.11 1013.34 1014.36 1014.49 1014.92 1015.30 1015.38 1015.60 1015.86 1016.90 1017.96 1018.67 1018.84 1019.02 1019.13 1019.22 1019.30 1019.45 1019.58 1019.66 1019.61 1019.70 1019.72 1019.76 1019.75 1019.84 1019.95 1020.16 1020.28 1020.29 1020.38 1020.37 1020.48 1020.56 1020.62 1020.66
1010.87 1010.00 1008.69 1007.79 1007.94 1007.84 1007.78 1008.00 1008.35 1008.95 1009.98 1010.80 1011.38 1012.40 1014.12 1014.92 1014.82 1015.06 1015.28 1015.40 1015.49 1016.17 1016.91 1017.95 1018.86 1018.96 1019.12 1019.26 1019.40 1019.56 1019.68 1019.80 1019.99 1020.02 1020.10 1020.08 1020.10 1020.08 1020.15 1020.25 1020.40 1020.50 1020.58 1020.64 1020.61 1020.66 1020.79 1020.82 1020.80
1010.12 1009.47 1008.80 1008.04 1008.39 1008.63 1008.71 1008.60 1008.84 1009.47 1010.04 1010.50 1011.35 1012.30 1014.76 1014.73 1014.95 1015.25 1015.38 1015.78 1016.02 1016.28 1017.46 1018.30 1018.20 1018.99 1019.24 1019.42 1019.55 1019.77 1019.98 1020.06 1020.24 1020.31 1020.48 1020.49 1020.55 1020.58 1020.52 1020.66 1020.73 1020.79 1020.86 1020.85 1020.86 1020.90 1020.86 1020.83 1020.89
1010.45 1009.62 1009.24 1008.84 1008.58 1009.08 1009.37 1009.64 1009.81 1009.74 1010.50 1011.26 1011.50 1012.53 1014.24 1014.93 1015.16 1015.34 1015.76 1016.06 1016.30 1016.79 1017.40 1018.08 1018.11 1018.57 1018.64 1019.09 1019.73 1019.88 1020.10 1020.25 1020.26 1020.44 1020.56 1020.64 1020.74 1020.77 1020.72 1020.78 1020.94 1020.94 1020.88 1020.89 1020.96 1020.96 1020.90 1020.93 1021.03
1010.14 1009.53 1009.73 1009.52 1009.02 1009.69 1009.92 1010.42 1010.62 1010.53 1010.87 1011.14 1011.73 1012.18 1014.07 1015.33 1015.10 1015.48 1015.86 1016.22 1016.74 1016.97 1017.22 1017.46 1018.07 1018.61 1018.56 1018.86 1019.75 1020.03 1020.20 1020.37 1020.48 1020.57 1020.73 1020.78 1020.42 1019.97 1020.40 1021.06 1021.10 1021.04 1021.01 1021.02 1021.04 1021.03 1021.00 1020.82 1020.72
1008.58 1008.90 1009.84 1010.29 1010.28 1009.99 1010.22 1010.42 1010.56 1010.69 1011.08 1011.56 1011.95 1013.23 1014.60 1015.05 1015.27 1015.42 1015.73 1016.17 1016.49 1017.12 1017.60 1017.59 1018.43 1018.42 1018.58 1018.80 1019.63 1019.61 1019.76 1019.57 1020.04 1020.19 1020.35 1020.25 1020.34 1020.48 1020.66 1021.19 1021.32 1021.20 1021.10 1020.96 1020.91 1020.83 1020.63 1020.26 1019.35
1008.39 1008.86 1010.11 1010.49 1010.43 1009.89 1010.85 1011.05 1010.88 1010.85 1010.92 1011.48 1012.17 1013.38 1014.50 1014.84 1015.24 1015.44 1015.82 1016.18 1016.64 1017.13 1017.37 1017.88 1018.56 1018.97 1019.50 1019.86 1019.54 1019.36 1019.47 1019.80 1020.50 1020.73 1020.40 1020.63 1020.54 1020.50 1020.48 1020.69 1020.61 1020.49 1020.80 1019.94 1020.06 1019.95 1019.60 1019.97 1019.75
1008.04 1009.29 1009.70 1010.05 1010.52 1010.48 1010.86 1011.51 1011.74 1011.81 1011.52 1011.44 1012.53 1013.52 1014.25 1014.69 1014.97 1015.34 1015.82 1016.44 1017.11 1017.42 1017.85 1018.34 1018.78 1019.64 1019.36 1019.46 1019.26 1019.64 1019.68 1019.92 1020.00 1020.68 1020.94 1020.93 1020.64 1020.86 1020.58 1020.54 1020.76 1020.74 1020.54 1020.57 1020.43 1020.09 1020.40 1020.04 1020.24
1007.69 1008.32 1009.29 1009.50 1011.07 1011.62 1011.92 1012.72 1013.05 1013.32 1012.31 1012.16 1013.07 1013.88 1014.22 1014.50 1014.93 1015.39 1015.97 1016.66 1017.30 1017.64 1018.10 1018.65 1019.03 1019.49 1019.86 1020.02 1019.85 1019.86 1020.26 1019.94 1020.46 1020.68 1021.00 1020.78 1020.70 1020.98 1020.81 1021.07 1020.75 1020.90 1020.56 1020.54 1020.50 1020.38 1020.39 1020.08 1020.10
1007.57 1008.10 1009.02 1009.62 1011.10 1012.05 1012.85 1013.58 1013.42 1014.35 1013.28 1013.23 1013.48 1013.80 1014.18 1014.50 1014.96 1015.55 1016.17 1016.76 1017.27 1017.67 1018.22 1018.75 1019.16 1019.62 1019.99 1020.02 1020.38 1020.39 1020.25 1020.63 1020.46 1020.66 1021.22 1021.44 1020.89 1021.05 1021.10 1021.02 1020.83 1020.97 1020.82 1020.86 1020.74 1020.92 1020.36 1020.12 1019.96
1007.46 1008.06 1009.11 1010.04 1011.27 1012.62 1013.30 1014.40 1014.63 1014.54 1013.70 1013.62 1013.55 1013.77 1014.17 1014.61 1015.12 1015.62 1016.25 1016.83 1017.30 1017.65 1018.34 1018.82 1019.13 1019.60 1020.02 1020.22 1020.32 1020.11 1020.39 1020.21 1020.46 1020.70 1021.39 1021.57 1021.24 1021.61 1021.32 1021.14 1020.90 1021.03 1021.20 1021.04 1020.83 1020.63 1020.42 1019.91 1019.77
1006.85 1007.34 1008.18 1010.38 1011.57 1013.34 1013.64 1014.00 1014.53 1014.45 1013.84 1013.66 1013.57 1013.82 1014.27 1014.70 1015.14 1015.58 1016.20 1016.74 1017.23 1017.55 1018.44 1018.87 1018.82 1019.46 1019.98 1020.32 1020.31 1020.13 1020.36 1020.40 1020.51 1020.72 1021.07 1021.45 1021.61 1021.71 1021.48 1020.98 1021.04 1021.41 1021.12 1020.80 1020.63 1020.39 1020.13 1020.04 1019.93
1006.37 1006.11 1007.60 1009.80 1010.63 1012.27 1012.89 1013.32 1014.35 1014.38 1013.98 1013.84 1013.69 1013.86 1014.18 1014.66 1015.01 1015.53 1016.11 1016.69 1017.18 1017.78 1018.49 1018.88 1019.26 1019.58 1020.00 1020.44 1020.35 1020.52 1020.82 1020.43 1020.58 1020.63 1020.80 1021.46 1021.54 1021.64 1021.25 1021.02 1021.46 1021.49 1020.99 1020.87 1020.46 1020.48 1020.39 1020.16 1019.91
1004.85 1005.03 1006.34 1007.93 1009.88 1011.26 1011.99 1012.34 1013.58 1014.46 1015.00 1014.79 1014.47 1014.04 1014.08 1014.35 1014.63 1015.33 1015.88 1016.44 1017.08 1017.82 1018.53 1018.88 1019.34 1019.87 1020.18 1020.32 1020.67 1020.42 1020.52 1020.50 1020.62 1020.67 1020.80 1021.49 1021.55 1021.68 1021.38 1021.44 1021.60 1021.26 1020.86 1020.84 1020.99 1021.03 1020.71 1020.43 1020.33
1004.44 1004.96 1005.76 1007.36 1008.83 1010.09 1011.11 1011.61 1013.02 1014.37 1015.04 1015.21 1015.28 1015.10 1013.84 1013.96 1014.39 1015.03 1015.73 1016.33 1016.93 1017.59 1018.36 1019.12 1019.40 1020.20 1020.37 1020.36 1020.26 1020.31 1020.24 1020.60 1020.73 1020.74 1021.28 1021.51 1021.64 1021.81 1021.85 1021.32 1021.57 1021.25 1021.15 1021.56 1021.30 1020.87 1020.79 1020.23 1020.40
1005.37 1005.26 1005.84 1007.81 1008.72 1009.27 1010.19 1010.92 1012.01 1013.34 1014.05 1015.10 1015.38 1014.87 1013.91 1014.07 1014.32 1015.08 1015.66 1016.01 1016.63 1017.38 1018.10 1018.82 1019.32 1020.10 1020.48 1020.36 1020.28 1020.22 1020.15 1020.33 1020.39 1020.73 1021.25 1021.33 1021.59 1021.79 1021.86 1021.85 1021.53 1021.86 1021.38 1021.72 1021.58 1021.39 1020.44 1020.44 1020.72
1005.49 1005.14 1005.78 1006.39 1008.25 1008.74 1009.42 1010.67 1011.66 1012.76 1013.80 1014.70 1015.42 1015.36 1015.59 1014.76 1014.19 1014.64 1015.34 1015.59 1016.33 1016.98 1017.85 1018.60 1019.30 1019.82 1020.29 1020.36 1020.43 1020.72 1020.71 1021.31 1021.51 1021.12 1021.23 1021.34 1021.64 1021.68 1021.89 1022.03 1021.94 1021.93 1021.64 1021.29 1021.61 1021.46 1021.34 1020.45 1020.82
1005.24 1006.06 1006.26 1006.72 1007.06 1007.42 1008.26 1008.98 1010.49 1011.62 1012.58 1013.38 1014.23 1014.99 1015.41 1014.91 1014.27 1014.03 1014.62 1015.24 1015.79 1016.54 1017.48 1018.33 1019.16 1019.76 1020.13 1020.38 1020.26 1020.37 1020.25 1020.43 1020.56 1021.07 1020.90 1021.10 1021.59 1021.76 1021.90 1022.10 1022.18 1022.14 1021.60 1021.90 1021.64 1021.41 1021.51 1021.18 1020.58
1005.62 1006.33 1006.31 1006.35 1006.35 1006.51 1007.24 1007.03 1007.51 1010.05 1011.38 1012.27 1013.09 1014.25 1014.84 1015.05 1014.15 1013.95 1014.12 1014.64 1015.25 1016.24 1017.00 1017.92 1018.96 1019.63 1019.85 1020.16 1020.38 1020.48 1020.31 1020.50 1020.95 1020.86 1021.33 1021.31 1021.59 1021.72 1021.76 1022.04 1022.09 1022.11 1021.69 1022.04 1022.00 1022.01 1022.00 1021.39 1020.96
1006.63 1006.50 1006.37 1006.42 1005.92 1005.53 1005.28 1006.04 1006.53 1008.06 1009.07 1010.59 1012.06 1012.92 1013.77 1014.46 1013.88 1014.16 1014.17 1014.35 1015.00 1015.83 1016.73 1017.50 1018.61 1019.34 1019.92 1020.27 1020.68 1020.79 1020.44 1020.39 1020.41 1020.80 1021.00 1021.16 1021.15 1021.31 1021.69 1021.82 1021.94 1022.00 1021.92 1022.11 1021.96 1022.20 1022.22 1022.16 1021.92
1006.88 1005.96 1005.33 1005.29 1005.02 1004.34 1004.78 1005.62 1004.71 1006.91 1008.32 1009.24 1010.19 1011.60 1012.60 1014.03 1013.90 1014.08 1014.26 1014.33 1015.00 1015.54 1016.44 1017.12 1018.12 1018.98 1019.56 1020.04 1020.41 1020.69 1020.84 1020.64 1020.84 1021.01 1020.90 1020.90 1020.79 1020.64 1021.34 1021.64 1021.81 1021.77 1022.10 1022.14 1022.08 1022.25 1022.22 1022.16 1022.12
1006.10 1005.24 1003.93 1003.55 1003.13 1003.42 1004.97 1005.02 1004.93 1006.50 1007.87 1008.55 1009.20 1010.69 1011.49 1013.16 1013.89 1014.08 1014.14 1014.27 1014.89 1015.49 1016.22 1016.86 1017.80 1018.48 1019.16 1019.64 1020.04 1020.48 1020.80 1020.91 1020.96 1020.77 1020.20 1020.54 1020.24 1020.70 1021.11 1021.54 1021.58 1021.74 1021.96 1022.12 1022.16 1021.89 1021.80 1022.08 1022.12
1005.40 1005.31 1004.60 1003.64 1002.93 1002.70 1003.34 1004.69 1006.41 1007.14 1007.75 1008.47 1008.99 1009.66 1010.88 1012.42 1013.61 1013.43 1013.70 1014.08 1014.45 1015.16 1015.96 1016.54 1017.39 1018.14 1018.70 1019.12 1019.73 1020.00 1020.39 1020.65 1020.83 1020.60 1020.72 1020.70 1020.55 1020.70 1021.04 1021.26 1021.46 1021.68 1021.94 1022.27 1022.17 1021.88 1022.05 1022.13 1022.34
1005.39 1005.38 1005.08 1004.75 1003.07 1002.81 1003.12 1004.06 1004.11 1006.30 1006.99 1007.88 1008.36 1009.09 1010.39 1012.30 1013.34 1013.53 1013.76 1014.00 1014.22 1014.95 1015.88 1016.39 1016.92 1017.75 1018.24 1018.80 1019.25 1019.57 1019.80 1020.17 1020.44 1020.63 1020.59 1020.64 1020.36 1020.39 1020.86 1021.04 1021.22 1021.57 1021.74 1021.90 1022.22 1021.94 1022.02 1022.34 1022.22
1005.46 1005.10 1004.78 1003.88 1003.52 1002.44 1002.79 1003.04 1004.69 1005.88 1006.82 1007.51 1008.16 1009.00 1010.03 1011.41 1012.51 1013.38 1014.02 1014.35 1014.66 1015.39 1016.06 1016.12 1016.68 1017.29 1017.79 1018.34 1018.84 1019.31 1019.54 1019.91 1020.29 1020.23 1020.34 1020.37 1020.32 1020.57 1020.89 1021.01 1021.08 1021.32 1021.50 1021.71 1022.20 1022.21 1022.10 1022.45 1022.40
1004.64 1004.20 1004.06 1003.80 1003.54 1003.65 1003.25 1004.46 1005.88 1006.54 1007.37 1007.95 1008.34 1009.12 1010.08 1011.38 1012.58 1013.84 1014.44 1014.63 1015.14 1015.65 1016.09 1016.36 1016.68 1016.89 1017.34 1017.80 1018.48 1018.96 1019.35 1019.64 1019.89 1020.16 1020.19 1019.89 1020.29 1020.45 1020.58 1020.75 1021.04 1021.29 1021.48 1021.56 1021.90 1022.04 1021.87 1022.27 1022.33
Wind_Speed
10 7 3 3 4 5 10 9 17 17 17 8 10 2 11 13 9 10 16 10 15 13 15 11 8 10 11 11 12 12 12 13 13 13 14 14 14 14 15 16 16 15 15 17 17 17 18 15 16
6 3 4 4 5 8 10 13 17 14 14 18 9 9 5 11 11 17 12 14 13 13 13 13 10 9 10 11 11 12 13 13 13 13 13 13 14 14 16 16 16 16 15 16 16 16 15 16 15
0 6 4 4 2 8 12 17 15 16 20 10 6 10 7 6 15 7 17 15 12 11 12 12 11 11 9 10 11 11 12 12 13 13 13 13 12 14 16 15 16 15 14 14 14 14 14 15 15
1 3 5 4 14 8 15 18 20 23 11 4 12 11 7 12 7 12 16 13 13 12 13 11 9 10 9 9 10 11 12 10 12 13 13 13 14 15 15 15 14 14 14 13 13 10 11 9 7
1 4 3 6 12 12 13 17 20 18 12 12 2 10 15 8 13 17 15 13 13 12 13 12 8 8 9 8 8 11 11 10 11 12 13 12 13 14 14 14 13 12 14 13 12 13 12 13 14
4 4 4 11 17 15 12 12 16 10 13 13 17 19 10 9 16 14 14 12 11 11 12 12 9 7 9 8 8 10 10 10 11 12 13 13 11 13 13 12 12 13 13 13 14 12 10 12 12
5 1 6 15 16 15 10 11 8 10 10 11 16 13 8 15 14 14 13 12 11 11 11 7 12 10 9 8 8 10 10 10 11 13 13 13 13 12 12 12 11 11 11 12 12 12 11 10 10
2 2 6 5 12 13 10 9 8 9 11 11 16 8 14 16 14 14 13 12 11 10 9 8 7 8 9 10 6 8 9 10 10 13 13 13 13 12 13 13 10 10 9 9 9 9 9 7 8
4 2 5 4 9 8 12 7 4 6 12 7 4 14 22 18 16 15 12 12 10 8 7 9 10 10 6 8 10 9 11 10 12 11 9 7 6 10 11 12 9 8 7 7 7 6 5 5 11
5 4 5 1 3 9 8 10 11 10 12 13 16 21 21 19 16 15 12 12 11 11 12 6 7 9 7 7 6 7 8 7 8 7 6 6 8 10 11 9 9 7 4 5 4 3 3 9 4
3 5 7 5 5 5 9 4 5 10 10 14 19 23 20 19 15 14 12 11 12 10 8 10 8 6 9 6 5 4 5 5 7 7 5 7 7 5 6 5 5 5 2 4 1 2 4 6 5
8 9 13 14 7 5 9 7 15 9 3 11 20 22 20 18 15 13 12 11 11 10 9 9 8 7 5 6 5 4 5 5 6 7 6 6 5 5 4 5 5 2 4 4 5 6 5 6 5
4 9 10 7 9 5 11 7 9 9 9 18 20 18 17 15 14 12 10 11 11 10 11 9 8 6 7 4 5 5 6 5 8 6 6 5 6 5 5 4 5 3 3 5 5 6 6 5 6
8 5 5 3 16 12 12 9 6 1 11 17 18 17 16 14 13 12 10 10 11 10 11 11 9 8 7 6 5 5 4 6 6 6 8 5 5 4 5 4 4 4 5 5 5 5 5 4 4
7 9 6 7 14 7 15 4 6 5 13 17 17 15 14 13 11 11 11 10 10 10 11 11 9 9 7 7 7 5 6 6 6 7 7 6 3 5 2 4 3 4 4 2 3 1 2 4 4
9 9 9 11 13 5 4 8 11 15 16 18 18 15 13 12 12 10 11 10 10 10 11 10 9 10 8 5 5 5 5 5 5 6 7 5 4 3 2 3 4 4 2 3 3 4 3 4 3
9 9 7 11 11 11 11 7 14 14 15 16 16 15 13 12 12 10 11 9 10 11 11 11 9 9 8 7 5 4 6 5 5 5 5 5 4 5 1 3 5 1 2 4 3 4 3 3 2
12 9 14 12 14 16 17 7 24 15 11 15 13 11 14 13 13 12 12 10 10 12 12 10 9 9 7 6 4 4 5 5 4 4 4 4 4 4 1 5 3 2 2 5 6 5 4 3 3
4 4 9 10 12 15 14 11 23 15 12 8 7 14 15 14 12 12 10 11 11 11 12 11 9 8 7 6 6 6 7 5 4 4 5 5 4 4 1 3 3 0 4 5 4 1 3 4 3
9 8 10 6 10 7 8 10 20 22 21 17 13 20 13 14 11 11 11 12 11 11 11 11 10 10 7 5 5 4 4 6 5 4 6 4 6 4 4 1 1 3 3 3 5 5 5 4 4
8 7 9 7 11 4 8 7 14 15 18 19 12 4 9 11 13 13 13 13 12 12 12 11 10 9 9 7 5 5 3 0 3 5 7 6 6 5 3 2 4 1 5 3 4 5 5 4 3
12 4 4 11 13 6 15 5 13 16 17 22 21 14 16 18 13 15 15 14 13 12 11 11 11 10 9 9 8 8 7 5 4 2 3 5 6 5 5 4 3 2 3 2 1 4 5 8 3
2 3 7 7 7 6 12 10 15 17 15 19 21 19 18 15 14 13 13 15 13 12 11 11 11 9 9 9 8 8 7 7 6 4 7 6 5 7 7 5 5 3 5 3 1 2 6 4 5
1 7 6 5 6 9 8 12 13 17 21 20 21 23 19 19 16 13 14 13 12 12 11 11 12 10 9 9 8 9 8 6 5 7 7 7 7 7 7 7 6 4 2 4 3 1 3 5 5
12 12 9 9 9 9 7 8 6 13 9 21 22 23 23 17 15 12 12 14 12 13 13 12 12 11 10 10 9 8 7 7 7 7 8 6 5 7 9 8 7 7 4 5 3 2 1 2 4
14 17 11 11 11 11 9 7 3 7 5 10 18 22 22 19 15 12 14 13 14 14 13 12 13 12 11 11 10 7 6 5 6 9 5 7 6 5 7 7 8 6 6 5 4 5 4 3 1
14 16 15 15 11 9 12 8 7 8 8 11 14 20 21 18 12 15 14 14 15 14 14 14 13 12 12 11 8 8 7 6 7 6 5 5 5 8 7 7 7 7 5 6 5 6 5 3 4
12 7 16 10 13 13 7 8 4 10 10 12 14 20 22 21 16 13 11 12 13 13 12 14 13 13 12 11 9 8 7 6 5 5 7 8 6 6 7 8 8 8 7 5 5 4 6 5 5
12 13 8 15 15 12 13 8 6 5 8 12 14 18 20 21 19 15 11 10 10 9 12 12 13 13 12 12 10 8 7 6 6 6 6 7 8 8 8 8 8 8 7 6 5 6 5 6 6
10 15 16 11 14 10 15 5 5 6 5 9 12 15 18 21 18 9 9 10 9 9 11 9 11 12 12 12 12 10 9 8 7 6 5 8 8 8 9 7 7 6 7 7 7 7 6 7 7
Wind_Direction
192 168 221 219 235 233 114 81 120 119 128 124 109 124 76 20 6 75 128 122 127 134 124 138 121 111 103 95 88 81 81 79 80 78 82 89 88 89 95 98 93 93 91 89 87 85 88 89 81
119 214 230 258 238 124 96 119 131 132 123 135 115 133 95 66 92 115 123 133 141 135 134 129 125 116 111 103 92 83 78 76 82 85 84 88 92 100 98 94 91 93 86 87 89 86 88 85 77
21 269 266 279 215 106 112 131 126 121 132 152 102 45 31 89 120 103 118 135 135 122 113 108 124 115 110 105 98 89 83 80 80 89 90 89 89 93 95 93 86 84 88 87 89 87 88 89 81
22 252 218 255 104 83 125 140 133 136 121 95 123 91 93 109 108 121 133 135 130 132 122 124 123 118 112 105 101 91 86 81 84 86 88 92 89 94 102 94 89 89 85 86 90 95 97 73 68
161 241 222 130 94 109 124 132 146 135 108 124 137 109 113 78 117 129 133 145 136 128 116 130 129 123 119 112 101 94 93 85 80 88 92 96 100 104 97 95 88 84 80 74 79 86 93 77 79
222 268 166 117 101 101 108 134 151 131 100 106 112 122 90 133 138 136 140 135 124 122 96 133 125 123 116 114 112 101 97 94 89 93 93 91 93 97 99 93 90 79 74 69 74 96 95 87 83
281 140 99 114 117 111 113 121 141 133 138 110 134 113 114 153 135 138 135 123 126 119 119 143 139 122 111 105 115 109 101 98 91 94 96 96 99 99 103 100 99 90 81 75 78 82 84 85 83
263 257 117 105 139 118 124 104 134 131 84 103 125 146 148 140 156 139 134 134 129 119 121 113 118 115 138 140 108 106 109 102 102 97 94 101 106 109 117 124 90 86 78 72 76 77 72 97 88
191 176 114 133 132 126 129 126 127 122 139 116 104 138 136 153 153 143 145 130 134 128 104 136 138 129 123 118 105 124 116 115 115 115 107 119 145 114 104 71 96 92 86 80 75 70 63 114 125
261 195 152 85 91 138 112 157 130 135 129 116 114 113 139 157 159 151 154 147 145 134 149 132 111 130 143 101 118 106 130 123 90 88 99 120 65 51 82 89 93 87 89 110 100 92 226 249 60
161 117 112 207 182 156 117 109 140 147 147 144 144 143 152 157 163 157 151 150 131 143 125 123 106 82 102 141 168 146 131 134 116 107 98 92 116 117 101 129 127 118 218 37 83 75 31 32 7
145 131 174 172 165 162 129 127 90 34 35 146 148 148 155 164 164 158 155 147 143 141 130 119 123 114 128 129 146 118 117 126 129 103 124 130 118 110 87 72 95 66 53 31 32 53 37 50 93
124 145 180 140 145 107 136 101 98 34 110 130 142 153 159 167 160 154 151 148 151 149 140 135 135 133 118 166 110 101 133 141 116 141 112 111 110 102 94 73 81 52 80 68 43 50 44 71 81
136 127 116 205 153 127 109 95 94 329 141 142 150 158 162 162 165 150 162 159 162 154 145 139 149 134 144 115 126 119 135 119 132 133 116 108 102 90 116 118 97 84 41 46 35 36 20 56 87
156 143 134 114 129 106 111 95 112 226 175 159 161 159 155 155 156 159 164 167 168 166 147 147 150 144 150 140 152 125 144 131 138 117 133 106 115 91 88 100 96 70 69 60 105 71 91 88 109
180 187 160 139 130 136 58 176 180 193 184 171 165 160 158 155 160 162 158 167 162 156 154 161 155 149 151 126 157 139 137 129 133 138 138 131 111 80 178 152 94 59 55 50 60 31 86 57 79
189 186 172 155 170 157 196 159 179 189 190 182 172 163 166 163 163 164 153 168 158 151 158 162 158 161 159 144 155 142 129 147 141 146 139 107 116 98 336 100 96 302 64 53 18 68 1 78 61
173 211 160 159 172 180 192 206 165 177 165 199 186 183 173 175 175 162 163 164 167 157 163 168 168 149 164 154 157 152 148 151 150 146 133 147 118 89 221 100 81 286 107 72 30 4 31 16 26
182 194 164 104 156 179 189 162 161 169 159 202 202 212 184 184 170 158 174 167 168 169 171 176 172 159 187 180 181 171 171 157 167 175 151 149 142 109 125 125 146 64 55 26 13 349 64 52 38
197 188 136 114 154 220 163 157 164 170 176 188 199 209 209 175 183 169 190 178 184 177 179 182 186 168 199 183 204 215 204 181 175 168 161 162 159 147 144 339 108 16 96 36 21 16 333 75 35
205 221 148 142 167 213 165 146 163 182 183 178 204 176 215 247 189 190 190 195 185 182 186 182 187 183 198 230 192 187 170 68 203 178 183 176 183 178 179 187 347 137 291 89 347 16 15 47 80
199 161 151 144 181 182 212 158 193 177 185 190 189 180 211 223 219 191 191 199 192 186 182 179 184 186 186 198 202 212 214 215 163 209 179 187 204 204 195 204 234 275 327 9 73 51 347 324 61
47 168 204 178 226 182 195 265 143 176 196 196 194 199 199 212 218 231 200 192 194 182 180 178 178 183 192 192 231 198 215 190 194 217 183 213 195 216 211 206 206 212 242 120 17 23 16 45 359
149 194 187 200 243 230 196 239 151 183 202 202 194 199 201 200 207 210 223 186 193 179 181 175 178 187 199 200 214 237 195 207 196 189 200 188 178 188 202 203 211 189 179 188 178 87 62 24 16
211 205 195 215 202 241 118 219 309 170 193 204 194 200 195 197 199 213 202 198 188 190 186 179 180 190 202 208 208 223 225 210 209 200 186 191 207 191 162 199 198 181 193 177 172 181 125 57 21
213 220 233 206 227 221 141 233 139 172 157 200 195 196 195 181 191 195 201 190 181 195 187 190 179 187 195 205 206 202 215 214 223 221 176 195 212 152 165 191 186 189 181 195 185 207 236 120 207
188 234 267 294 272 251 163 187 165 176 196 193 203 196 190 171 187 196 196 193 190 185 190 189 186 189 196 200 211 202 202 214 200 202 195 223 180 171 196 194 194 199 197 219 186 239 226 224 236
269 222 218 231 261 223 188 232 244 190 192 186 191 191 187 171 188 191 193 202 189 186 182 191 189 195 196 205 196 212 206 212 219 207 188 188 210 195 179 195 196 202 207 204 213 220 209 240 251
193 229 244 264 232 258 235 194 85 170 179 181 184 183 176 187 179 177 176 179 189 186 187 192 188 194 198 198 200 206 213 203 219 219 211 194 191 197 197 206 198 205 207 210 218 247 277 246 255
279 220 224 225 221 259 293 45 111 131 171 176 178 177 176 185 169 152 173 170 161 178 188 198 190 194 199 193 194 200 213 207 206 226 227 212 190 193 195 195 206 210 220 211 218 231 250 226 247